Terug naar catalogus

STARLINK-34104

ActiefCommunicatieVLEO
NORAD 64102·PAYLOAD·🇺🇸 United States

Gelanceerd May 23, 2025 vanaf Vandenberg Space Force Base

Loading…

Volgende Passages (komende 24 uur)

TLE

VersSource: CelesTrak SupGP

Epoch: Sep 15, 2026, 02:12 UTC

1 64102C 25110G   26258.09215278 -.00048745  00000+0 -14402-2 0  2589
2 64102  53.1581 223.2670 0001501  86.9546 274.5763 15.34414204    18

Volg STARLINK-34104 in realtime met AllMySat

Download on the App Store